FREGAT DEB, 46619

Orbit data source: Space-Track

FREGAT DEB, 46619 is space debris in LEO originally from a launch on Mon, 18 Jul 2011 UTC launched from the Tyuratam Missile And Space Complex (TTMTR). Debris objects in space refer to the collection of defunct objects orbiting the Earth. Examples of debris include non-operational satellites, rocket bodies, and fragments generated from explosions, collisions, or faulty payload assembly.

Loading next visibility...
Identifier
46619, 2011-037MK
Orbit
LEO
Country
Flag of CISCIS
Related business
Manufacturer
Lavochkin
Mission
Spacecraft
Bus & Motor
Unknown
Mass
Unknown
Launch date (UTC)
2011-07-18 (14 years ago)
Launch vehicle
Unknown
Launch site
Tyuratam Missile And Space Complex (TTMTR)
Object type
Payload
Rocket body
Debris
Shape & HBR
Unknown shape, 0.1 m
Radar Cross Section
Small (<0.1 m²)

Expand to show TLE details & history
Last TLE update: 6 days ago

TLE from 6 days ago
0 FREGAT DEB
1 46619U 11037MK  25334.95654747  .00050181  00000-0  39825-1 0  9995
2 46619  51.0118 309.5765 1122559 347.1626  10.2686 12.36589937221891
Epoch: 2025-11-30T22:57Z
TLE epoch observation values (Epoch: 2025-11-30T22:57:25.701Z)
Latitude
-0°
Longitude
-104.84355°
Altitude
652.971 km
Speed
7.935 km/s
True Right ascension
20h 38m 18s
True Declination
0° 00' 00"
Sunlit
Object was in daylight at epoch
Visualization orbit readout
Latitude
Unknown
Longitude
Unknown
Altitude
Unknown
Speed
Unknown
Apparent Right ascension
Unknown
Apparent Declination
Unknown
Sunlit
N/A
Visualization observer readout
Local Sidereal Time
04:06:16
Azimuth
Unknown
Elevation
Unknown
Doppler factor
Unknown
Orbital elements
Apogee altitude
2,408.425 km
Perigee altitude
634.834 km
Semi-major axis
7,899.767 km
Eccentricity
0.11226
Inclination
51.0118°
RAAN
309.5765°
Arg. of periapsis
347.1626°
True anomaly
12.92526°
Mean anomaly
10.2686°
Eccentric anomaly
11.55718°
Mean motion
3.09116 °/min
Orbital period
116.46 mins
BSTAR
0.039825
Loading maneuver chart data...
Computing Atmospheric mass density...
Loading historical data...
Loading historical data...
Loading historical data...
Loading historical data...
Loading historical data...
Loading historical data...
Loading historical data...

Documentation

Showing up to 5 results
|